Location: Bakhuizen
(52.8696°N, 5.4575°E)
Time: 05:40:36
(UTC+00:00)

Nimbus 7 Rocket - Pass Details

Date: 29 September 2021
Orbit: 922 x 965 km, 99.4° (Epoch: 17 October)

Event Time Altitude Azimuth Distance (km) Brightness Sun altitude
Rises 01:02:54 0° 12° (NNE) 3,584 8.4 -35.9°
Reaches altitude 10° 01:05:36 10° 2° (N) 2,641 7.4 -35.7°
Enters shadow 01:09:05 27° 330° (NNW) 1,725 5.9 -35.4°
